sat.trackr.live / text

‹ back to catalog

QIANFAN-83

NORAD 63169 · 2025-046L

PAYLOAD ACTIVE UNKNOWN

§ Identity

Operator
Country
PRC
Launch date
2025-03-11
Launch site
WSC
Launch vehicle
Mass (kg)
RCS (m²)

External: N2YO · Heavens-Above · Gunter

§ Orbital elements

Epoch: 2026-05-25T02:01:56.282880Z

Period
105.72 min
Inclination
88.9693°
Eccentricity
0.0013683
Mean motion
13.62036304 rev/d
Perigee alt
1,018.2 km
Apogee alt
1,038.4 km
Semi-major
7,406.4 km
B*
1.0430e-4
RAAN
302.4389°
Arg perigee
1.2873°
Mean anomaly
358.8317°
Rev number
6,983

§ Raw data

QIANFAN-831 63169U 25046L   26145.08467920  .00000093  00000+0  10430-3 0  99982 63169  88.9693 302.4389 0013683   1.2873 358.8317 13.62036304 69830

JSON: /api/v1/satellites/63169 · /tle

For live sub-satellite position, see the globe view (requires WebGL).

§ Visibility from observer

Set your observer location to see the next 7 days of passes ≥ 10°. The values pass through the URL so the page stays shareable.

No JS? Fill the form by hand. The geolocation button needs JavaScript.